Content
SEND FEEDBACK

Daily
Averages
Monthly
Summary
United States of America

KOKOMO, INDIANA


Home > North America > United States > Indiana
Elevation: 827 feet     Latitude: 40 31N     Longitude: 086 03W

WEATHER
 
SELECT A DAY
Number of Records: 272,854;   Date Range: 9/23/02 - 11/19/14
 
SHARE

PRINT THIS DATA

[ ← Previous Day ]
WEATHER ALMANAC - JANUARY 31, 2013
[ Next Day → ]
[ °C ]   °F
Weather ElementAverageHighLow
Temperature19.2 °F24.8 °F (12:35 am)8.6 °F (10:55 pm)
Dewpoint13.6 °F19.4 °F (9:35 am)1.4 °F (11:55 pm)
Humidity79 %93 % (9:55 am)64 % (12:55 pm)
Barometer29.86 in30.10 in (11:55 pm)29.64 in (12:35 am)
Wind Speed24.6 mph34.5 mph (12:35 am)
Wind Gust43.7 mph (12:35 am)
Weather ElementAverage
Visibility6.3 mi
Wind DirectionWNW (283.8 °)

Weather ElementTotal
Precipitation---
Heating Degree Days48.3 (Base 65)
Averaged from 69 records on January 31, 2013
WEATHER CONDITIONS BREAKOUT
WIND DIRECTION BREAKOUT
WEATHER BY HOUR - JANUARY 31, 2013
[ °C ]   °F
Local TimeTemperatureDewpointHumidityBarometerVisibilityWind DirectionWind SpeedGust SpeedPrecipitationEventsConditions
12:35 AM24.8 °F17.6 °F74 %29.64 in9.0 miWest (280°)34.5 mph43.7 mphOvercast
12:55 AM23.0 °F17.6 °F80 %29.64 in10.0 miWest (270°)29.9 mph39.1 mphOvercast
1:15 AM23.0 °F17.6 °F80 %29.65 in8.0 miWest (280°)32.2 mph40.3 mphOvercast
1:35 AM23.0 °F17.6 °F80 %29.66 in5.0 miWest (280°)25.3 mph32.2 mphOvercast
1:55 AM23.0 °F17.6 °F80 %29.67 in9.0 miWest (280°)29.9 mph39.1 mphOvercast
2:15 AM23.0 °F17.6 °F80 %29.68 in4.0 miWest (270°)25.3 mph34.5 mphOvercast
2:35 AM23.0 °F17.6 °F80 %29.69 in4.0 miWest (280°)28.8 mph35.7 mphOvercast
2:55 AM23.0 °F17.6 °F80 %29.69 in7.0 miWest (280°)29.9 mph35.7 mphOvercast
3:15 AM23.0 °F17.6 °F80 %29.69 in9.0 miWest (280°)28.8 mph33.4 mphOvercast
3:35 AM21.2 °F15.8 °F80 %29.69 in10.0 miWNW (290°)27.6 mph36.8 mphOvercast
3:55 AM21.2 °F15.8 °F80 %29.71 in1.5 miWNW (290°)31.1 mph39.1 mphOvercast
4:15 AM19.4 °F15.8 °F86 %29.72 in2.0 miWNW (290°)32.2 mph40.3 mphOvercast
4:35 AM19.4 °F10.4 °F68 %29.73 in10.0 miWNW (290°)27.6 mph35.7 mphOvercast
4:55 AM19.4 °F12.2 °F74 %29.74 in5.0 miWest (270°)21.9 mphOvercast
5:15 AM19.4 °F14.0 °F80 %29.74 in7.0 miWNW (290°)27.6 mph38.0 mphOvercast
5:35 AM19.4 °F14.0 °F80 %29.75 in2.0 miWest (270°)31.1 mph39.1 mphOvercast
6:15 AM19.4 °F12.2 °F74 %29.77 in8.0 miWest (280°)32.2 mph41.4 mphOvercast
6:35 AM17.6 °F12.2 °F79 %29.77 in10.0 miWNW (290°)21.9 mph35.7 mphOvercast
6:55 AM19.4 °F14.0 °F80 %29.78 in10.0 miWest (280°)19.6 mphOvercast
7:15 AM19.4 °F15.8 °F86 %29.79 in9.0 miWest (280°)16.1 mphOvercast
7:35 AM19.4 °F15.8 °F86 %29.79 in7.0 miWest (270°)15.0 mphOvercast
7:55 AM21.2 °F15.8 °F80 %29.80 in4.0 miWest (260°)16.1 mphOvercast
8:15 AM21.2 °F15.8 °F80 %29.81 in5.0 miWest (270°)13.8 mph18.4 mphOvercast
8:35 AM23.0 °F15.8 °F74 %29.81 in10.0 miWest (270°)21.9 mph29.9 mphOvercast
8:55 AM23.0 °F15.8 °F74 %29.81 in10.0 miWest (270°)24.2 mph33.4 mphOvercast
9:15 AM23.0 °F17.6 °F80 %29.82 in10.0 miWest (260°)18.4 mph25.3 mphMostly Cloudy
9:35 AM23.0 °F19.4 °F86 %29.83 in1.8 miWest (260°)18.4 mphOvercast
9:55 AM21.2 °F19.4 °F93 %29.84 in0.8 miWest (280°)23.0 mph27.6 mphOvercast
10:15 AM23.0 °F17.6 °F80 %29.85 in7.0 miWest (270°)21.9 mphMostly Cloudy
10:35 AM23.0 °F19.4 °F86 %29.84 in0.5 miWNW (290°)28.8 mph35.7 mphOvercast
10:55 AM23.0 °F17.6 °F80 %29.85 in1.5 miWest (280°)26.5 mph34.5 mphOvercast
11:15 AM24.8 °F17.6 °F74 %29.85 in10.0 miWNW (290°)21.9 mph29.9 mphOvercast
11:35 AM23.0 °F15.8 °F74 %29.86 in10.0 miWest (280°)26.5 mph32.2 mphMostly Cloudy
11:55 AM23.0 °F15.8 °F74 %29.85 in9.0 miWest (280°)27.6 mph34.5 mphMostly Cloudy
12:15 PM23.0 °F15.8 °F74 %29.86 in7.0 miWest (270°)26.5 mph36.8 mphOvercast
12:35 PM23.0 °F15.8 °F74 %29.86 in9.0 miWest (270°)25.3 mph34.5 mphMostly Cloudy
12:55 PM24.8 °F14.0 °F64 %29.86 in10.0 miWest (280°)29.9 mph38.0 mphMostly Cloudy
1:15 PM23.0 °F14.0 °F68 %29.86 in8.0 miWNW (290°)27.6 mph34.5 mphMostly Cloudy
1:35 PM23.0 °F15.8 °F74 %29.86 in10.0 miWest (280°)21.9 mph27.6 mphMostly Cloudy
1:55 PM23.0 °F15.8 °F74 %29.86 in10.0 miWest (280°)26.5 mph31.1 mphScattered Clouds
2:15 PM23.0 °F15.8 °F74 %29.86 in10.0 miWest (280°)24.2 mph29.9 mphMostly Cloudy
2:35 PM21.2 °F15.8 °F80 %29.86 in10.0 miWest (280°)20.7 mph27.6 mphOvercast
2:55 PM21.2 °F17.6 °F86 %29.87 in3.0 miWNW (290°)21.9 mphOvercast
3:15 PM21.2 °F17.6 °F86 %29.87 in4.0 miWNW (290°)19.6 mphMostly Cloudy
3:35 PM21.2 °F17.6 °F86 %29.87 in5.0 miWest (280°)16.1 mph21.9 mphOvercast
3:55 PM21.2 °F17.6 °F86 %29.87 in9.0 miWNW (290°)19.6 mphOvercast
4:15 PM21.2 °F17.6 °F86 %29.88 in3.0 miWNW (290°)20.7 mph28.8 mphMostly Cloudy
4:35 PM19.4 °F17.6 °F93 %29.89 in1.8 miWNW (290°)23.0 mph29.9 mphOvercast
4:55 PM19.4 °F15.8 °F86 %29.90 in1.5 miWNW (290°)24.2 mphOvercast
5:15 PM17.6 °F10.4 °F73 %29.92 in1.2 miWNW (290°)28.8 mph34.5 mphOvercast
5:35 PM17.6 °F12.2 °F79 %29.93 in4.0 miWNW (300°)24.2 mph32.2 mphMostly Cloudy
5:55 PM17.6 °F10.4 °F73 %29.94 in10.0 miWNW (290°)24.2 mph31.1 mphOvercast
6:15 PM17.6 °F10.4 °F73 %29.95 in10.0 miWNW (300°)24.2 mph29.9 mphOvercast
6:35 PM15.8 °F10.4 °F79 %29.96 in3.0 miWNW (290°)26.5 mph33.4 mphMostly Cloudy
7:15 PM15.8 °F8.6 °F73 %29.97 in5.0 miWNW (300°)25.3 mph32.2 mphMostly Cloudy
7:35 PM15.8 °F10.4 °F79 %29.98 in5.0 miWNW (290°)21.9 mphMostly Cloudy
7:55 PM14.0 °F10.4 °F86 %29.98 in4.0 miWNW (290°)27.6 mph33.4 mphScattered Clouds
8:15 PM12.2 °F6.8 °F79 %29.99 in7.0 miWNW (300°)21.9 mph32.2 mphPartly Cloudy
8:35 PM12.2 °F6.8 °F79 %30.00 in10.0 miWNW (300°)25.3 mph35.7 mphMostly Cloudy
8:55 PM12.2 °F5.0 °F73 %30.01 in10.0 miWNW (300°)23.0 mph32.2 mphMostly Cloudy
9:15 PM12.2 °F6.8 °F79 %30.02 in5.0 miWNW (290°)23.0 mph31.1 mphMostly Cloudy
9:35 PM12.2 °F3.2 °F67 %30.03 in10.0 miWNW (290°)25.3 mph34.5 mphMostly Cloudy
9:55 PM10.4 °F3.2 °F73 %30.04 in5.0 miWNW (290°)26.5 mph33.4 mphOvercast
10:15 PM10.4 °F6.8 °F85 %30.05 in1.2 miWNW (290°)27.6 mph34.5 mphOvercast
10:35 PM10.4 °F6.8 °F85 %30.06 in1.2 miWNW (290°)26.5 mph33.4 mphOvercast
10:55 PM8.6 °F3.2 °F79 %30.07 in4.0 miWNW (300°)21.9 mph28.8 mphScattered Clouds
11:15 PM8.6 °F6.8 °F92 %30.08 in2.0 miWNW (290°)20.7 mphOvercast
11:35 PM8.6 °F3.2 °F79 %30.09 in4.0 miWNW (290°)24.2 mph28.8 mphMostly Cloudy
11:55 PM8.6 °F1.4 °F73 %30.10 in5.0 miWNW (300°)23.0 mph31.1 mphPartly Cloudy
Hourly data recorded from KOKK, located miles away from Kokomo, Indiana







STORIES FROM OUR PARTNERS